Weather History for KRKP - March, 2013

Change the Weather History Date:

Tuesday, March 5, 2013

  Actual Average Record
Temperature  
Mean Temperature 63 °F -  
Max Temperature 71 °F 70 °F 82 °F (1981)
Min Temperature 53 °F 51 °F 35 °F (1978)
Degree Days  
Heating Degree Days 2    
Growing Degree Days 13 (Base 50)    
Moisture  
Dew Point 43 °F    
Average Humidity 52    
Maximum Humidity 94    
Minimum Humidity 20    
Precipitation  
Precipitation 0.00 in - - ()
Sea Level Pressure  
Sea Level Pressure 30.13 in    
Wind  
Wind Speed 15 mph (North)    
Max Wind Speed 29 mph    
Max Gust Speed 40 mph    
Visibility 10 miles    
Events      
Averages and records for this station are not official NWS values.
T = Trace of Precipitation, MM = Missing Value Source: NWS Daily Summary

Daily Weather History Graph

Daily Weather History Graph

Search for Another Location

Airport or City:

Trip Planner

Search our weather history database for the weather conditions in past years. The results will help you decide how hot, cold, wet, or windy it might be!

Date:

Astronomy

Mar. 05, 2013 Rise Set
Actual Time 6:48 AM CST 6:31 PM CST
Civil Twilight 6:24 AM CST 6:54 PM CST
Nautical Twilight 5:57 AM CST 7:21 PM CST
Astronomical Twilight 5:30 AM CST 7:49 PM CST
Moon 1:40 AM CST (3/5) 12:33 PM CST (3/5)
Length of Visible Light 12h 29m
Length of Day
11h 42m
Last Quarter, 40% of the Moon is Illuminated
Mar 5
Last Quarter
Mar 11
New
Mar 19
First Quarter
Mar 27
Full
Apr 2
Last Quarter

Hourly Weather History & Observations

Time (CST) Temp. Dew Point Humidity Pressure Visibility Wind Dir Wind Speed Gust Speed Precip Events Conditions
1:53 AM 66.0 °F 62.1 °F 87% 29.83 in 9.0 mi South 12.7 mph 23.0 mph N/A   Clear
2:53 AM 66.0 °F 62.1 °F 87% 29.83 in 9.0 mi South 10.4 mph 24.2 mph N/A   Clear
3:53 AM 64.9 °F 62.1 °F 90% 29.82 in 9.0 mi South 9.2 mph 21.9 mph N/A   Clear
4:53 AM 64.9 °F 62.1 °F 90% 29.84 in 8.0 mi South 9.2 mph 19.6 mph N/A   Clear
6:28 AM 64.4 °F 62.6 °F 94% 30.02 in 9.0 mi NNW 26.5 mph 40.3 mph N/A   Mostly Cloudy
6:49 AM 64.4 °F 60.8 °F 88% 30.02 in 10.0 mi NNW 13.8 mph 24.2 mph N/A   Overcast
7:07 AM 64.4 °F 60.8 °F 88% 30.01 in 10.0 mi North 9.2 mph 19.6 mph N/A   Mostly Cloudy
7:53 AM 66.9 °F 61.0 °F 81% 30.04 in 9.0 mi NNE 8.1 mph - N/A   Partly Cloudy
8:25 AM 60.8 °F 46.4 °F 59% 30.08 in 10.0 mi North 28.8 mph 40.3 mph N/A   Mostly Cloudy
8:53 AM 59.0 °F 45.0 °F 60% 30.12 in 10.0 mi North 23.0 mph 32.2 mph N/A   Overcast
9:53 AM 59.0 °F 42.1 °F 53% 30.17 in 10.0 mi North 20.7 mph 36.8 mph N/A   Overcast
10:10 AM 60.8 °F 41.0 °F 48% 30.16 in 10.0 mi NNE 26.5 mph 38.0 mph N/A   Overcast
10:53 AM 63.0 °F 41.0 °F 45% 30.18 in 10.0 mi North 20.7 mph 31.1 mph N/A   Overcast
11:53 AM 66.9 °F 39.0 °F 36% 30.19 in 10.0 mi North 21.9 mph 31.1 mph N/A   Overcast
12:53 PM 71.1 °F 39.0 °F 31% 30.20 in 10.0 mi North 23.0 mph 32.2 mph N/A   Clear
1:53 PM 71.1 °F 37.9 °F 30% 30.21 in 10.0 mi North 19.6 mph 27.6 mph N/A   Clear
2:53 PM 70.0 °F 35.1 °F 28% 30.21 in 10.0 mi North 17.3 mph 25.3 mph N/A   Clear
3:53 PM 70.0 °F 33.1 °F 26% 30.20 in 10.0 mi North 18.4 mph 26.5 mph N/A   Clear
4:53 PM 70.0 °F 27.0 °F 20% 30.21 in 10.0 mi North 17.3 mph 26.5 mph N/A   Clear
5:53 PM 66.9 °F 32.0 °F 27% 30.23 in 10.0 mi North 13.8 mph - N/A   Clear
6:53 PM 63.0 °F 32.0 °F 31% 30.26 in 10.0 mi North 9.2 mph - N/A   Clear
7:53 PM 60.1 °F 28.0 °F 30% 30.27 in 10.0 mi North 12.7 mph - N/A   Clear
8:53 PM 59.0 °F 27.0 °F 29% 30.29 in 10.0 mi North 11.5 mph - N/A   Clear
9:53 PM 57.0 °F 26.1 °F 30% 30.31 in 10.0 mi North 11.5 mph - N/A   Clear
10:53 PM 55.0 °F 25.0 °F 31% 30.32 in 10.0 mi NNE 10.4 mph - N/A   Clear
11:53 PM 53.1 °F 26.1 °F 35% 30.33 in 10.0 mi NNE 10.4 mph - N/A   Clear